Torna al catalogo

COSMOS 1995

AttivoNavigazionePO
NORAD 19786·PAYLOAD·🇷🇺 Russia

Lanciato Feb 10, 1989 da Plesetsk Cosmodrome

Loading…

Prossimi Passaggi (prossime 24 ore)

TLE

AggiornatoSource: Space-Track

Epoca: Sep 14, 2026, 22:25 UTC

1 19786U 89009B   26257.93463998  .00000012  00000-0  10342-4 0  9997
2 19786  82.6266 331.8481 0002110 278.5380 263.5332 12.62237254731669

Traccia COSMOS 1995 in tempo reale con AllMySat

Download on the App Store